GW4344 Weather Reports


time (UTC)temp
C
wind
direction
speed
KPH
gust
KPH
rain 1hr
cm
rain 24hr
cm
rain mn
cm
humidity
%
barometer
mb
20260906064036 26 10 0.0 321.9 0.00 0.00 0.00 55 124.8
20260906063536 26 1 0.0 321.9 0.00 0.00 0.00 54 124.7
20260906063035 26 349 0.0 321.9 0.00 0.00 0.00 54 124.5
20260906062534 26 339 0.0 321.9 0.00 0.00 0.00 52 124.2
20260906062033 26 332 0.0 321.9 0.00 0.00 0.00 54 124.0
20260906061532 25 324 0.0 321.9 0.00 0.00 0.00 54 123.9
20260906061032 25 314 0.0 321.9 0.00 0.00 0.00 55 123.6
20260906060531 25 306 0.0 321.9 0.00 0.00 0.00 56 123.4
20260906060030 24 297 0.0 321.9 0.00 0.00 0.00 57 123.2
20260906055530 23 285 0.0 321.9 0.00 0.00 0.00 61 123.0
20260906055029 23 270 0.0 321.9 0.00 0.00 0.00 65 122.7
20260906054529 23 253 0.0 321.9 0.00 0.00 0.00 68 122.3
20260906054028 22 237 0.0 321.9 0.00 0.00 0.00 69 121.8
20260906053527 22 224 0.0 321.9 0.00 0.00 0.00 69 121.4
20260906053027 22 216 0.0 321.9 0.00 0.00 0.00 70 121.1
20260906052526 22 216 0.0 321.9 0.00 0.00 0.00 72 121.1
20260906052026 22 217 0.0 321.9 0.00 0.00 0.00 70 121.1
20260906051525 22 220 0.0 321.9 0.00 0.00 0.00 70 121.1
20260906045953 21 227 0.0 321.9 0.00 0.00 0.00 68 121.2
20260906045452 21 234 0.0 321.9 0.00 0.00 0.00 69 121.3
20260906044951 21 235 0.0 321.9 0.00 0.00 0.00 69 121.4
20260906043934 20 227 0.0 321.9 0.00 0.00 0.00 64 121.2
20260906043433 20 225 0.0 321.9 0.00 0.00 0.00 64 121.1
20260906042932 20 225 0.0 321.9 0.00 0.00 0.00 65 121.1
20260906042431 20 225 0.0 321.9 0.00 0.00 0.00 66 121.1
20260906041930 20 226 0.0 321.9 0.00 0.00 0.00 66 121.1
20260906041429 20 226 0.0 321.9 0.00 0.00 0.00 68 121.1
20260906040412 21 228 0.0 321.9 0.00 0.00 0.00 70 121.2
20260906035911 21 229 0.0 321.9 0.00 0.00 0.00 69 121.2
20260906035410 21 230 0.0 321.9 0.00 0.00 0.00 69 121.2
20260906034909 21 231 0.0 321.9 0.00 0.00 0.00 68 121.2
20260906034408 21 232 0.0 321.9 0.00 0.00 0.00 67 121.3
20260906033352 21 233 0.0 321.9 0.00 0.00 0.00 62 121.2
20260906032851 21 234 0.0 321.9 0.00 0.00 0.00 61 121.3
20260906032350 21 237 0.0 321.9 0.00 0.00 0.00 60 121.3
20260906031333 21 249 0.0 321.9 0.00 0.00 0.00 60 121.5
20260906030832 21 255 0.0 321.9 0.00 0.00 0.00 60 121.7
20260906030331 21 260 0.0 321.9 0.00 0.00 0.00 59 121.8
20260906025830 21 263 0.0 321.9 0.00 0.00 0.00 58 121.9
20260906025329 21 265 0.0 321.9 0.00 0.00 0.00 56 122.0
20260906024828 22 266 0.0 321.9 0.00 0.00 0.00 55 122.0
20260906024327 22 269 0.0 321.9 0.00 0.00 0.00 54 122.0
20260906023826 22 272 0.0 321.9 0.00 0.00 0.00 54 122.0
20260906023325 22 275 0.0 321.9 0.00 0.00 0.00 54 122.1
20260906022824 22 277 0.0 321.9 0.00 0.00 0.00 54 122.3
20260906021808 22 283 0.0 321.9 0.00 0.00 0.00 52 122.3
20260906021308 22 285 0.0 321.9 0.00 0.00 0.00 52 122.4
20260906020807 23 287 0.0 321.9 0.00 0.00 0.00 52 122.4
20260906020306 23 289 0.0 321.9 0.00 0.00 0.00 51 122.5
20260906015805 23 287 0.0 321.9 0.00 0.00 0.00 49 122.4
20260906015306 23 285 0.0 321.9 0.00 0.00 0.00 48 122.4
20260906014803 23 287 0.0 321.9 0.00 0.00 0.00 46 122.4
20260906014303 22 291 0.0 321.9 0.00 0.00 0.00 46 122.5
20260906012730 23 300 0.0 321.9 0.00 0.00 0.00 47 122.7
20260906012229 23 302 0.0 321.9 0.00 0.00 0.00 46 122.8
20260906011728 23 303 0.0 321.9 0.00 0.00 0.00 46 122.8
20260906010155 23 311 0.0 321.9 0.00 0.00 0.00 45 122.9
20260906005654 23 312 0.0 321.9 0.00 0.00 0.00 45 122.9
20260906004637 24 314 0.0 321.9 0.00 0.00 0.00 44 122.9
20260906004136 24 316 0.0 321.9 0.00 0.00 0.00 44 123.0
20260906003634 24 316 0.0 321.9 0.00 0.00 0.00 44 123.0
20260906003134 24 316 0.0 321.9 0.00 0.00 0.00 44 123.0
20260906002633 24 317 0.0 321.9 0.00 0.00 0.00 43 123.0
20260906002132 24 317 0.0 321.9 0.00 0.00 0.00 43 123.0
20260906001115 24 316 0.0 321.9 0.00 0.00 0.00 43 123.0
20260906000058 24 314 0.0 321.9 0.00 0.00 0.00 43 123.0
20260905235557 24 314 0.0 321.9 0.00 0.00 0.00 43 122.9
20260905235056 24 315 0.0 321.9 0.00 0.00 0.00 44 122.9
20260905234555 24 316 0.0 321.9 0.00 0.00 0.00 44 122.9
20260905234054 24 316 0.0 321.9 0.00 0.00 0.00 43 122.9
20260905233036 24 318 0.0 321.9 0.00 0.00 0.00 44 123.0
20260905232020 24 319 0.0 321.9 0.00 0.00 0.00 44 123.0
20260905231519 24 321 0.0 321.9 0.00 0.00 0.00 45 123.1
20260905231018 24 323 0.0 321.9 0.00 0.00 0.00 44 123.1
20260905230517 24 325 0.0 321.9 0.00 0.00 0.00 45 123.2
20260905225500 24 328 0.0 321.9 0.00 0.00 0.00 44 123.2
20260905224443 25 331 0.0 321.9 0.00 0.00 0.00 44 123.3
20260905223942 25 331 0.0 321.9 0.00 0.00 0.00 43 123.3
20260905222926 25 332 0.0 321.9 0.00 0.00 0.00 43 123.3
20260905222425 25 333 0.0 321.9 0.00 0.00 0.00 43 123.2
20260905221924 25 332 0.0 321.9 0.00 0.00 0.00 43 123.3
20260905221423 26 332 0.0 321.9 0.00 0.00 0.00 43 123.2
20260905220921 26 331 0.0 321.9 0.00 0.00 0.00 42 123.2
20260905220420 26 330 0.0 321.9 0.00 0.00 0.00 42 123.2
20260905215404 25 331 0.0 321.9 0.00 0.00 0.00 42 123.2
20260905214904 25 333 0.0 321.9 0.00 0.00 0.00 42 123.2
20260905214404 25 335 0.0 321.9 0.00 0.00 0.00 43 123.2
20260905213903 25 335 0.0 321.9 0.00 0.00 0.00 43 123.3
20260905213402 25 334 0.0 321.9 0.00 0.00 0.00 43 123.3
20260905212901 26 332 0.0 321.9 0.00 0.00 0.00 43 123.2
20260905212401 26 332 0.0 321.9 0.00 0.00 0.00 42 123.2
20260905211859 26 332 0.0 321.9 0.00 0.00 0.00 41 123.3
20260905205810 26 335 0.0 321.9 0.00 0.00 0.00 42 123.3
20260905205309 26 336 0.0 321.9 0.00 0.00 0.00 42 123.3
20260905204252 26 336 0.0 321.9 0.00 0.00 0.00 42 123.3
20260905203751 26 335 0.0 321.9 0.00 0.00 0.00 42 123.3
20260905203251 26 333 0.0 321.9 0.00 0.00 0.00 42 123.2
20260905202750 26 333 0.0 321.9 0.00 0.00 0.00 42 123.2
20260905202248 26 332 0.0 321.9 0.00 0.00 0.00 42 123.2
20260905201231 26 330 0.0 321.9 0.00 0.00 0.00 42 123.2
20260905200731 26 331 0.0 321.9 0.00 0.00 0.00 42 123.2
20260905200229 26 332 0.0 321.9 0.00 0.00 0.00 42 123.2
20260905195729 26 332 0.0 321.9 0.00 0.00 0.00 43 123.3
20260905195228 26 332 0.0 321.9 0.00 0.00 0.00 43 123.3
20260905194727 26 333 0.0 321.9 0.00 0.00 0.00 43 123.3
20260905194225 26 333 0.0 321.9 0.00 0.00 0.00 44 123.3
20260905193725 26 334 0.0 321.9 0.00 0.00 0.00 44 123.3
20260905193224 26 335 0.0 321.9 0.00 0.00 0.00 45 123.3
20260905192723 26 336 0.0 321.9 0.00 0.00 0.00 45 123.3
20260905192222 26 337 0.0 321.9 0.00 0.00 0.00 46 123.4
20260905191722 26 340 0.0 321.9 0.00 0.00 0.00 47 123.4
20260905191221 26 341 0.0 321.9 0.00 0.00 0.00 48 123.4
20260905190204 26 344 0.0 321.9 0.00 0.00 0.00 48 123.4
20260905185704 26 345 0.0 321.9 0.00 0.00 0.00 48 123.5
20260905184647 26 346 0.0 321.9 0.00 0.00 0.00 47 123.5
20260905184146 26 345 0.0 321.9 0.00 0.00 0.00 47 123.5
20260905183645 26 346 0.0 321.9 0.00 0.00 0.00 46 123.6
20260905183144 26 347 0.0 321.9 0.00 0.00 0.00 45 123.5
20260905182127 26 353 0.0 321.9 0.00 0.00 0.00 45 123.7
20260905181626 26 356 0.0 321.9 0.00 0.00 0.00 45 123.8
20260905181125 26 0 0.0 321.9 0.00 0.00 0.00 45 123.9
20260905180624 26 4 0.0 321.9 0.00 0.00 0.00 46 124.0
20260905180124 26 9 0.0 321.9 0.00 0.00 0.00 47 124.0
20260905175623 26 13 0.0 321.9 0.00 0.00 0.00 47 124.1
20260905175122 26 16 0.0 321.9 0.00 0.00 0.00 47 124.1
20260905174621 26 19 0.0 321.9 0.00 0.00 0.00 46 124.2
20260905174120 27 25 0.0 321.9 0.00 0.00 0.00 45 124.3
20260905173619 27 32 0.0 321.9 0.00 0.00 0.00 44 124.5
20260905172602 27 43 0.0 321.9 0.00 0.00 0.00 43 124.7
20260905172102 27 48 0.0 321.9 0.00 0.00 0.00 44 124.8
20260905171601 27 55 0.0 321.9 0.00 0.00 0.00 44 125.0
20260905171100 28 62 0.0 321.9 0.00 0.00 0.00 43 125.1
20260905165528 28 84 0.0 321.9 0.00 0.00 0.00 44 125.6
20260905165027 28 94 0.0 321.9 0.00 0.00 0.00 43 125.8
20260905164526 29 107 0.0 321.9 0.00 0.00 0.00 41 126.1
20260905164025 29 128 0.0 321.9 0.00 0.00 0.00 39 126.4
20260905163525 30 146 0.0 321.9 0.00 0.00 0.00 39 126.7
20260905163025 30 154 0.0 321.9 0.00 0.00 0.00 38 126.9
20260905162525 30 158 0.0 321.9 0.00 0.00 0.00 37 127.0
20260905161509 31 164 0.0 321.9 0.00 0.00 0.00 37 127.2
20260905161009 31 170 0.0 321.9 0.00 0.00 0.00 37 127.3
20260905160508 31 172 0.0 321.9 0.00 0.00 0.00 36 127.3
20260905160007 31 173 0.0 321.9 0.00 0.00 0.00 36 127.4
20260905155507 31 176 0.0 321.9 0.00 0.00 0.00 37 127.5
20260905155007 31 182 0.0 321.9 0.00 0.00 0.00 37 127.7
20260905154507 31 194 0.0 321.9 0.00 0.00 0.00 38 127.9
20260905154006 31 208 0.0 321.9 0.00 0.00 0.00 41 128.1
20260905153505 32 216 0.0 321.9 0.00 0.00 0.00 38 128.3
20260905153005 32 221 0.0 321.9 0.00 0.00 0.00 38 128.4
20260905151948 32 220 0.0 321.9 0.00 0.00 0.00 37 128.3
20260905150931 32 227 0.0 321.9 0.00 0.00 0.00 35 128.5
20260905150430 32 231 0.0 321.9 0.00 0.00 0.00 35 128.6
20260905145413 32 228 0.0 321.9 0.00 0.00 0.00 33 128.6
20260905144913 32 227 0.0 321.9 0.00 0.00 0.00 33 128.5
20260905144412 32 228 0.0 321.9 0.00 0.00 0.00 33 128.6
20260905143911 32 228 0.0 321.9 0.00 0.00 0.00 34 128.6
20260905142855 32 230 0.0 321.9 0.00 0.00 0.00 36 128.7
20260905142355 32 228 0.0 321.9 0.00 0.00 0.00 35 128.6
20260905141853 32 228 0.0 321.9 0.00 0.00 0.00 36 128.6
20260905141353 32 230 0.0 321.9 0.00 0.00 0.00 35 128.7
20260905140853 33 239 0.0 321.9 0.00 0.00 0.00 35 128.8
20260905140352 33 246 0.0 321.9 0.00 0.00 0.00 34 128.9
20260905135851 33 246 0.0 321.9 0.00 0.00 0.00 32 128.9
20260905135350 33 244 0.0 321.9 0.00 0.00 0.00 32 128.9
20260905134333 33 244 0.0 321.9 0.00 0.00 0.00 32 128.9
20260905133832 33 245 0.0 321.9 0.00 0.00 0.00 31 128.9
20260905133331 33 243 0.0 321.9 0.00 0.00 0.00 30 128.9
20260905132830 33 238 0.0 321.9 0.00 0.00 0.00 30 128.8
20260905132328 33 234 0.0 321.9 0.00 0.00 0.00 30 128.8
20260905131827 33 236 0.0 321.9 0.00 0.00 0.00 30 128.8
20260905131326 33 242 0.0 321.9 0.00 0.00 0.00 31 128.9
20260905130825 33 241 0.0 321.9 0.00 0.00 0.00 31 128.9
20260905125809 33 236 0.0 321.9 0.00 0.00 0.00 31 128.9
20260905125308 33 233 0.0 321.9 0.00 0.00 0.00 31 128.8
20260905124807 33 228 0.0 321.9 0.00 0.00 0.00 30 128.7
20260905124306 33 223 0.0 321.9 0.00 0.00 0.00 30 128.6
20260905123805 32 220 0.0 321.9 0.00 0.00 0.00 30 128.6
20260905123304 32 222 0.0 321.9 0.00 0.00 0.00 30 128.6
20260905122803 32 217 0.0 321.9 0.00 0.00 0.00 31 128.5
20260905120715 32 219 0.0 321.9 0.00 0.00 0.00 32 128.6
20260905120215 32 219 0.0 321.9 0.00 0.00 0.00 32 128.6
20260905115714 32 221 0.0 321.9 0.00 0.00 0.00 34 128.7
20260905114658 32 225 0.0 321.9 0.00 0.00 0.00 35 128.8
20260905113641 33 219 0.0 321.9 0.00 0.00 0.00 35 128.7
20260905113140 33 214 0.0 321.9 0.00 0.00 0.00 35 128.6
20260905112639 32 209 0.0 321.9 0.00 0.00 0.00 35 128.5
20260905111622 32 203 0.0 321.9 0.00 0.00 0.00 32 128.3
20260905111121 32 202 0.0 321.9 0.00 0.00 0.00 34 128.3
20260905110621 32 197 0.0 321.9 0.00 0.00 0.00 34 128.3
20260905110120 32 192 0.0 321.9 0.00 0.00 0.00 33 128.1
20260905105619 32 191 0.0 321.9 0.00 0.00 0.00 36 128.2
20260905105118 32 191 0.0 321.9 0.00 0.00 0.00 36 128.1
20260905104616 32 189 0.0 321.9 0.00 0.00 0.00 35 128.1
20260905104115 32 191 0.0 321.9 0.00 0.00 0.00 37 128.1
20260905103615 32 189 0.0 321.9 0.00 0.00 0.00 35 128.2
20260905103113 32 185 0.0 321.9 0.00 0.00 0.00 35 128.1
20260905102612 32 181 0.0 321.9 0.00 0.00 0.00 35 128.0
20260905102112 31 176 0.0 321.9 0.00 0.00 0.00 36 127.9
20260905101611 31 173 0.0 321.9 0.00 0.00 0.00 37 127.9
20260905101110 31 170 0.0 321.9 0.00 0.00 0.00 35 127.8
20260905100610 31 167 0.0 321.9 0.00 0.00 0.00 37 127.8
20260905100109 31 160 0.0 321.9 0.00 0.00 0.00 37 127.7
20260905095609 31 153 0.0 321.9 0.00 0.00 0.00 39 127.5
20260905095109 30 148 0.0 321.9 0.00 0.00 0.00 40 127.4
20260905094608 30 144 0.0 321.9 0.00 0.00 0.00 40 127.3
20260905093551 30 136 0.0 321.9 0.00 0.00 0.00 40 127.2
20260905093050 30 133 0.0 321.9 0.00 0.00 0.00 41 127.2
20260905092549 30 129 0.0 321.9 0.00 0.00 0.00 42 127.1
20260905092048 30 128 0.0 321.9 0.00 0.00 0.00 42 127.1
20260905091032 30 126 0.0 321.9 0.00 0.00 0.00 44 127.1
20260905090531 30 126 0.0 321.9 0.00 0.00 0.00 45 127.2
20260905090031 30 126 0.0 321.9 0.00 0.00 0.00 46 127.2
20260905085530 30 125 0.0 321.9 0.00 0.00 0.00 46 127.2
20260905085029 29 123 0.0 321.9 0.00 0.00 0.00 48 127.2
20260905084528 29 119 0.0 321.9 0.00 0.00 0.00 49 127.2
20260905084027 29 118 0.0 321.9 0.00 0.00 0.00 50 127.2
20260905083527 29 112 0.0 321.9 0.00 0.00 0.00 49 127.2
20260905082510 28 102 0.0 321.9 0.00 0.00 0.00 53 126.9
20260905082010 28 100 0.0 321.9 0.00 0.00 0.00 52 127.0
20260905081510 28 96 0.0 321.9 0.00 0.00 0.00 53 126.9
20260905081010 28 93 0.0 321.9 0.00 0.00 0.00 54 126.9
20260905080509 28 86 0.0 321.9 0.00 0.00 0.00 54 126.8
20260905080009 27 82 0.0 321.9 0.00 0.00 0.00 55 126.7
20260905074953 27 72 0.0 321.9 0.00 0.00 0.00 57 126.5
20260905074452 27 71 0.0 321.9 0.00 0.00 0.00 58 126.5
20260905073951 27 69 0.0 321.9 0.00 0.00 0.00 59 126.5
20260905073450 27 64 0.0 321.9 0.00 0.00 0.00 58 126.5
20260905072950 27 57 0.0 321.9 0.00 0.00 0.00 60 126.4
20260905072450 26 52 0.0 321.9 0.00 0.00 0.00 62 126.2
20260905071949 26 49 0.0 321.9 0.00 0.00 0.00 63 126.1
20260905071448 26 41 0.0 321.9 0.00 0.00 0.00 64 125.9
20260905070947 26 37 0.0 321.9 0.00 0.00 0.00 64 125.8
20260905070447 26 34 0.0 321.9 0.00 0.00 0.00 64 125.6
20260905065946 26 37 0.0 321.9 0.00 0.00 0.00 65 125.7
20260905065445 26 37 0.0 321.9 0.00 0.00 0.00 67 125.7